TimeCDT,TemperatureF,Dew PointF,Humidity,Sea Level PressureIn,VisibilityMPH,Wind Direction,Wind SpeedMPH,Gust SpeedMPH,PrecipitationIn,Events,Conditions,WindDirDegrees,DateUTC
12:15 AM,43.2,39.2,86,30.17,10.0,Calm,Calm,-,N/A,,Clear,0,2013-05-13 05:15:00
12:35 AM,42.1,38.7,88,30.17,10.0,Calm,Calm,-,N/A,,Clear,0,2013-05-13 05:35:00
12:55 AM,43.2,37.4,80,30.17,10.0,Calm,Calm,-,N/A,,Clear,0,2013-05-13 05:55:00
1:15 AM,42.1,39.2,90,30.17,10.0,WSW,3.5,-,N/A,,Clear,240,2013-05-13 06:15:00
1:35 AM,41.2,38.3,89,30.17,10.0,Calm,Calm,-,N/A,,Clear,0,2013-05-13 06:35:00
1:55 AM,41.5,36.5,82,30.17,10.0,Calm,Calm,-,N/A,,Clear,0,2013-05-13 06:55:00
2:15 AM,40.3,36.5,86,30.17,10.0,Calm,Calm,-,N/A,,Clear,0,2013-05-13 07:15:00
2:35 AM,41.0,36.7,85,30.17,10.0,Calm,Calm,-,N/A,,Clear,0,2013-05-13 07:35:00
2:55 AM,41.0,36.5,84,30.17,10.0,SW,3.5,-,N/A,,Clear,230,2013-05-13 07:55:00
3:15 AM,40.1,36.7,88,30.17,10.0,Calm,Calm,-,N/A,,Clear,0,2013-05-13 08:15:00
3:35 AM,40.1,36.3,86,30.18,10.0,SW,3.5,-,N/A,,Clear,230,2013-05-13 08:35:00
3:55 AM,39.4,36.3,89,30.17,10.0,SW,3.5,-,N/A,,Clear,220,2013-05-13 08:55:00
4:15 AM,39.4,36.0,88,30.17,10.0,Calm,Calm,-,N/A,,Clear,0,2013-05-13 09:15:00
4:35 AM,39.0,36.1,89,30.17,10.0,Calm,Calm,-,N/A,,Clear,0,2013-05-13 09:35:00
4:55 AM,38.5,35.1,87,30.16,10.0,Calm,Calm,-,N/A,,Clear,0,2013-05-13 09:55:00
5:15 AM,38.5,35.8,90,30.17,10.0,Calm,Calm,-,N/A,,Clear,0,2013-05-13 10:15:00
5:35 AM,37.9,35.6,91,30.17,10.0,Calm,Calm,-,N/A,,Clear,0,2013-05-13 10:35:00
5:55 AM,38.3,35.1,88,30.18,10.0,Calm,Calm,-,N/A,,Clear,0,2013-05-13 10:55:00
6:15 AM,39.2,35.6,87,30.18,10.0,SSW,3.5,-,N/A,,Clear,210,2013-05-13 11:15:00
6:35 AM,39.4,36.1,88,30.19,10.0,Calm,Calm,-,N/A,,Clear,0,2013-05-13 11:35:00
6:55 AM,41.4,38.5,89,30.20,10.0,Calm,Calm,-,N/A,,Clear,0,2013-05-13 11:55:00
7:15 AM,45.0,39.7,82,30.20,10.0,Calm,Calm,-,N/A,,Clear,0,2013-05-13 12:15:00
7:35 AM,48.0,39.7,73,30.21,10.0,WSW,5.8,-,N/A,,Clear,240,2013-05-13 12:35:00
7:55 AM,50.0,40.3,69,30.21,10.0,SW,5.8,-,N/A,,Clear,230,2013-05-13 12:55:00
8:35 AM,52.3,40.6,64,30.22,10.0,SW,9.2,-,N/A,,Clear,220,2013-05-13 13:35:00
8:55 AM,54.9,41.4,60,30.23,10.0,SW,6.9,-,N/A,,Clear,220,2013-05-13 13:55:00
9:15 AM,56.8,37.6,49,30.22,10.0,WSW,9.2,-,N/A,,Clear,250,2013-05-13 14:15:00
9:35 AM,58.1,35.2,42,30.22,10.0,WSW,8.1,-,N/A,,Clear,240,2013-05-13 14:35:00
9:55 AM,58.6,33.6,39,30.22,10.0,WSW,6.9,-,N/A,,Clear,250,2013-05-13 14:55:00
10:15 AM,59.2,32.0,36,30.23,10.0,SSW,3.5,-,N/A,,Clear,210,2013-05-13 15:15:00
10:35 AM,60.1,32.5,35,30.23,10.0,West,3.5,-,N/A,,Clear,270,2013-05-13 15:35:00
10:55 AM,60.8,32.2,34,30.23,10.0,West,8.1,-,N/A,,Clear,260,2013-05-13 15:55:00
11:15 AM,60.8,33.1,35,30.23,10.0,SW,3.5,-,N/A,,Clear,220,2013-05-13 16:15:00
11:35 AM,61.7,34.0,35,30.22,10.0,WNW,3.5,-,N/A,,Clear,290,2013-05-13 16:35:00
11:55 AM,62.2,32.4,33,30.22,10.0,Calm,Calm,-,N/A,,Clear,0,2013-05-13 16:55:00
12:15 PM,62.1,32.4,33,30.21,10.0,Calm,Calm,-,N/A,,Clear,0,2013-05-13 17:15:00
12:35 PM,63.1,33.1,33,30.20,10.0,Calm,Calm,-,N/A,,Clear,0,2013-05-13 17:35:00
12:55 PM,64.2,37.4,37,30.20,10.0,West,8.1,-,N/A,,Clear,270,2013-05-13 17:55:00
1:15 PM,64.6,37.0,36,30.19,10.0,SW,6.9,-,N/A,,Clear,220,2013-05-13 18:15:00
1:35 PM,64.2,34.5,33,30.18,10.0,Calm,Calm,-,N/A,,Clear,0,2013-05-13 18:35:00
1:55 PM,65.5,37.0,35,30.18,10.0,WSW,10.4,-,N/A,,Clear,250,2013-05-13 18:55:00
2:15 PM,65.3,33.6,31,30.17,10.0,SSW,3.5,-,N/A,,Clear,210,2013-05-13 19:15:00
2:35 PM,65.7,34.9,32,30.16,10.0,West,5.8,-,N/A,,Clear,280,2013-05-13 19:35:00
3:35 PM,66.9,36.5,33,30.14,10.0,SW,5.8,-,N/A,,Clear,230,2013-05-13 20:35:00
3:55 PM,67.8,38.3,34,30.13,10.0,SW,5.8,-,N/A,,Clear,230,2013-05-13 20:55:00
4:15 PM,67.8,39.4,35,30.13,10.0,SE,3.5,-,N/A,,Clear,130,2013-05-13 21:15:00
4:35 PM,67.3,38.7,35,30.12,10.0,SSW,8.1,-,N/A,,Clear,210,2013-05-13 21:35:00
4:55 PM,67.3,41.7,39,30.11,10.0,South,8.1,-,N/A,,Clear,180,2013-05-13 21:55:00
5:15 PM,67.6,40.5,37,30.11,10.0,South,8.1,-,N/A,,Clear,190,2013-05-13 22:15:00
5:35 PM,66.4,38.1,35,30.11,10.0,SSW,6.9,-,N/A,,Clear,200,2013-05-13 22:35:00
5:55 PM,66.4,39.9,38,30.10,10.0,South,9.2,-,N/A,,Clear,190,2013-05-13 22:55:00
6:55 PM,64.0,42.1,45,30.09,10.0,SSE,8.1,-,N/A,,Clear,160,2013-05-13 23:55:00
7:15 PM,62.8,43.0,48,30.08,10.0,SSE,6.9,-,N/A,,Clear,160,2013-05-14 00:15:00
7:35 PM,61.2,42.6,51,30.08,10.0,SSE,5.8,-,N/A,,Clear,150,2013-05-14 00:35:00
7:55 PM,60.6,42.3,51,30.08,10.0,SE,5.8,-,N/A,,Clear,140,2013-05-14 00:55:00
8:15 PM,60.3,42.1,51,30.08,10.0,SE,8.1,-,N/A,,Clear,140,2013-05-14 01:15:00
8:35 PM,60.3,41.9,51,30.07,10.0,SE,8.1,-,N/A,,Scattered Clouds,140,2013-05-14 01:35:00
8:55 PM,59.9,41.2,50,30.07,10.0,SE,9.2,-,N/A,,Scattered Clouds,140,2013-05-14 01:55:00
9:15 PM,59.5,41.5,51,30.07,10.0,SE,8.1,-,N/A,,Clear,140,2013-05-14 02:15:00
9:35 PM,59.0,41.0,51,30.07,10.0,SE,9.2,-,N/A,,Clear,140,2013-05-14 02:35:00
9:55 PM,58.6,40.6,51,30.08,10.0,SE,9.2,-,N/A,,Clear,140,2013-05-14 02:55:00
10:15 PM,58.1,40.6,52,30.07,10.0,SSE,9.2,-,N/A,,Clear,150,2013-05-14 03:15:00
10:35 PM,57.6,40.6,53,30.06,10.0,SSE,10.4,-,N/A,,Clear,150,2013-05-14 03:35:00
10:55 PM,57.4,40.8,54,30.06,10.0,SSE,11.5,-,N/A,,Clear,150,2013-05-14 03:55:00
11:15 PM,57.4,41.2,55,30.05,10.0,SSE,11.5,-,N/A,,Clear,150,2013-05-14 04:15:00
11:35 PM,57.0,41.9,57,30.05,10.0,SSE,10.4,-,N/A,,Clear,150,2013-05-14 04:35:00
11:55 PM,56.7,42.6,59,30.05,10.0,SSE,9.2,-,N/A,,Clear,150,2013-05-14 04:55:00